GW2129 Weather Reports


Display with metric or nautical units.
time (UTC)temp
F
wind
direction
speed
MPH
gust
MPH
rain 1hr
in
rain 24hr
in
rain mn
in
humidity
%
barometer
mb
20260509152449 79 240 2.0 5.0 0.00 0.00 0.00 85 1011.8
20260509151947 78 285 2.0 5.0 0.00 0.00 0.00 88 1011.5
20260509151442 77 310 2.0 3.0 0.00 0.00 0.00 90 1011.6
20260509150940 76 255 3.0 4.0 0.00 0.00 0.00 91 1011.8
20260509150438 75 265 2.0 4.0 0.00 0.00 0.00 95 1011.9
20260509145936 75 234 1.0 3.0 0.00 0.00 0.00 97 1012.0
20260509145431 75 307 0.0 2.0 0.00 0.00 0.00 98 1012.2
20260509144927 74 292 2.0 3.0 0.00 0.00 0.00 99 1012.3
20260509144424 74 156 0.0 1.0 0.00 0.00 0.00 99 1012.6
20260509143921 73 214 2.0 2.0 0.00 0.00 0.00 99 1012.5
20260509143418 74 243 0.0 1.0 0.00 0.00 0.00 99 1012.3
20260509142914 73 269 0.0 2.0 0.00 0.00 0.00 99 1012.3
20260509142411 73 50 0.0 3.0 0.00 0.00 0.00 99 1012.2
20260509141907 73 114 0.0 1.0 0.00 0.00 0.00 99 1012.2
20260509141404 73 119 0.0 3.0 0.00 0.00 0.00 99 1012.1
20260509140901 73 95 2.0 3.0 0.00 0.00 0.00 99 1011.9
20260509140357 73 146 0.0 3.0 0.00 0.00 0.00 99 1011.8
20260509135855 73 96 2.0 3.0 0.00 0.00 0.00 99 1011.4
20260509135353 73 42 1.0 3.0 0.00 0.00 0.00 99 1011.5
20260509134850 73 86 2.0 3.0 0.00 0.00 0.00 99 1011.7
20260509134347 72 68 0.0 2.0 0.00 0.00 0.00 99 1011.5
20260509133844 73 303 2.0 4.0 0.00 0.00 0.00 99 1011.7
20260509133341 73 354 1.0 2.0 0.00 0.00 0.00 99 1011.9
20260509132840 72 324 1.0 2.0 0.00 0.00 0.00 99 1011.5
20260509132337 72 104 1.0 1.0 0.00 0.00 0.00 99 1011.8
20260509131834 72 347 2.0 4.0 0.00 0.00 0.00 99 1011.9
20260509131331 72 22 0.0 1.0 0.00 0.00 0.00 99 1011.7
20260509130827 72 147 0.0 2.0 0.00 0.00 0.00 99 1011.6
20260509130323 72 85 1.0 2.0 0.00 0.00 0.00 99 1011.4
20260509125820 72 145 0.0 3.0 0.00 0.00 0.00 99 1011.7
20260509125316 72 163 2.0 3.0 0.00 0.00 0.00 99 1011.4
20260509124813 72 110 0.0 2.0 0.00 0.00 0.00 99 1011.1
20260509124309 72 154 2.0 3.0 0.00 0.00 0.00 99 1011.3
20260509123808 72 162 1.0 2.0 0.00 0.00 0.00 99 1011.4
20260509123305 72 305 2.0 3.0 0.00 0.00 0.00 99 1011.5
20260509122800 72 7 0.0 2.0 0.00 0.00 0.00 99 1011.6
20260509122257 72 225 0.0 2.0 0.00 0.00 0.00 99 1011.6
20260509121754 72 164 0.0 2.0 0.00 0.00 0.00 99 1011.7
20260509121251 72 93 2.0 3.0 0.00 0.00 0.00 99 1011.9
20260509120749 72 73 0.0 3.0 0.00 0.00 0.00 99 1011.9
20260509120247 72 86 2.0 2.0 0.00 0.00 0.00 99 1011.7
20260509115745 72 29 0.0 3.0 0.00 0.00 0.00 99 1011.8
20260509115241 72 323 0.0 2.0 0.00 0.00 0.00 99 1011.9
20260509114740 72 113 0.0 1.0 0.00 0.00 0.00 99 1011.8
20260509114238 72 234 1.0 3.0 0.00 0.00 0.00 99 1011.9
20260509113737 72 0 2.0 2.0 0.00 0.00 0.00 99 1011.9
20260509113233 72 357 2.0 5.0 0.00 0.00 0.00 99 1011.7
20260509112730 72 56 2.0 4.0 0.00 0.00 0.00 99 1012.0
20260509112227 72 355 2.0 7.0 0.00 0.00 0.00 99 1011.9
20260509111724 72 315 3.0 6.0 0.00 0.00 0.00 99 1011.8
20260509111221 72 350 2.0 7.0 0.00 0.00 0.00 99 1011.4
20260509110719 72 336 6.0 8.0 0.00 0.00 0.00 99 1011.2
20260509110215 72 344 2.0 7.0 0.00 0.00 0.00 99 1011.2
20260509105713 72 350 2.0 4.0 0.00 0.00 0.00 99 1011.0
20260509105211 72 337 2.0 3.0 0.00 0.00 0.00 99 1011.0
20260509104707 72 345 3.0 3.0 0.00 0.00 0.00 98 1011.1
20260509104204 72 352 2.0 3.0 0.00 0.00 0.00 98 1011.1
20260509103702 72 129 0.0 1.0 0.00 0.00 0.00 98 1011.2
20260509103159 72 41 1.0 2.0 0.00 0.00 0.00 98 1011.4
20260509102658 72 89 0.0 2.0 0.00 0.00 0.00 98 1011.3
20260509102154 72 6 0.0 2.0 0.00 0.00 0.00 98 1011.4
20260509101650 72 333 1.0 2.0 0.00 0.00 0.00 98 1011.3
20260509101147 72 89 0.0 2.0 0.00 0.00 0.00 98 1011.5
20260509100645 72 12 1.0 2.0 0.00 0.00 0.00 98 1011.4
20260509100141 72 66 1.0 2.0 0.00 0.00 0.00 98 1011.1
20260509095638 72 85 2.0 3.0 0.00 0.00 0.00 98 1011.3
20260509095135 72 123 1.0 3.0 0.00 0.00 0.00 98 1011.4
20260509094632 72 102 0.0 2.0 0.00 0.00 0.00 98 1011.4
20260509094129 72 128 0.0 2.0 0.00 0.00 0.00 98 1010.9
20260509093627 72 327 1.0 2.0 0.00 0.00 0.00 98 1010.9
20260509093124 72 30 1.0 2.0 0.00 0.00 0.00 98 1010.8
20260509092622 72 3 1.0 2.0 0.00 0.00 0.00 98 1011.1
20260509092120 72 66 0.0 1.0 0.00 0.00 0.00 98 1010.9
20260509091618 72 100 1.0 2.0 0.00 0.00 0.00 98 1010.9
20260509091114 72 117 0.0 0.0 0.00 0.00 0.00 98 1010.9
20260509090612 72 104 2.0 2.0 0.00 0.00 0.00 98 1010.5
20260509090109 72 101 2.0 3.0 0.00 0.00 0.00 98 1010.6
20260509085607 72 98 0.0 2.0 0.00 0.00 0.00 98 1010.5
20260509085102 72 119 1.0 1.0 0.00 0.00 0.00 98 1010.4
20260509084559 72 128 0.0 2.0 0.00 0.00 0.00 97 1010.5
20260509084056 72 89 0.0 1.0 0.00 0.00 0.00 97 1010.6
20260509083554 72 309 0.0 0.0 0.00 0.00 0.00 97 1010.6
20260509083050 72 175 1.0 1.0 0.00 0.00 0.00 97 1010.6
20260509082548 72 239 1.0 3.0 0.00 0.00 0.00 97 1010.7
20260509082045 72 132 2.0 2.0 0.00 0.00 0.00 97 1010.9
20260509081542 73 74 0.0 2.0 0.00 0.00 0.00 97 1010.8
20260509081038 73 233 0.0 1.0 0.00 0.00 0.00 97 1010.9
20260509080536 73 141 0.0 3.0 0.00 0.00 0.00 97 1010.5
20260509080034 73 263 2.0 2.0 0.00 0.00 0.00 97 1010.9
20260509075531 73 48 0.0 3.0 0.00 0.00 0.00 97 1011.1
20260509075029 73 110 0.0 3.0 0.00 0.00 0.00 97 1010.7
20260509074526 73 143 0.0 4.0 0.00 0.00 0.00 96 1010.4
20260509074023 73 118 3.0 4.0 0.00 0.00 0.00 96 1010.5
20260509073519 73 231 0.0 4.0 0.00 0.00 0.00 96 1010.7
20260509073016 73 134 2.0 4.0 0.00 0.00 0.00 96 1010.7
20260509072512 73 218 0.0 2.0 0.00 0.00 0.00 96 1010.6
20260509072009 73 322 0.0 0.0 0.00 0.00 0.00 96 1010.6
20260509071506 73 255 1.0 1.0 0.00 0.00 0.00 96 1010.6
20260509071003 73 298 0.0 3.0 0.00 0.00 0.00 96 1010.9
20260509070500 73 266 2.0 2.0 0.00 0.00 0.00 95 1011.0
20260509065956 73 329 0.0 1.0 0.00 0.00 0.00 95 1011.0
20260509065452 73 242 1.0 2.0 0.00 0.00 0.00 95 1011.2
20260509064948 73 226 1.0 2.0 0.00 0.00 0.00 95 1010.8
20260509064446 73 250 1.0 4.0 0.00 0.00 0.00 95 1010.9
20260509063944 73 211 1.0 4.0 0.00 0.00 0.00 95 1010.8
20260509063439 73 256 0.0 2.0 0.00 0.00 0.00 95 1011.0
20260509062936 73 346 0.0 2.0 0.00 0.00 0.00 95 1010.7
20260509062434 73 97 1.0 3.0 0.00 0.00 0.00 95 1010.7
20260509061931 72 55 0.0 1.0 0.00 0.00 0.00 95 1010.6
20260509061428 73 336 0.0 1.0 0.00 0.00 0.00 95 1010.8
20260509060925 72 329 0.0 1.0 0.00 0.00 0.00 95 1010.8
20260509060423 72 282 1.0 2.0 0.00 0.00 0.00 95 1010.8
20260509055918 72 345 0.0 2.0 0.00 0.00 0.00 95 1010.7
20260509055413 72 235 0.0 2.0 0.00 0.00 0.00 95 1011.2
20260509054910 72 293 2.0 2.0 0.00 0.00 0.00 95 1011.1
20260509054407 72 165 2.0 3.0 0.00 0.00 0.00 95 1011.2
20260509053905 72 232 2.0 4.0 0.00 0.00 0.00 95 1011.4
20260509053402 72 286 1.0 2.0 0.00 0.00 0.00 95 1011.2
20260509052900 72 130 1.0 4.0 0.00 0.00 0.00 95 1011.2
20260509052357 72 327 1.0 1.0 0.00 0.00 0.00 95 1011.4
20260509051855 72 264 0.0 1.0 0.00 0.00 0.00 95 1011.3
20260509051353 72 336 0.0 2.0 0.00 0.00 0.00 95 1011.4
20260509050849 72 315 0.0 4.0 0.00 0.00 0.00 95 1011.3
20260509050346 72 317 0.0 2.0 0.00 0.00 0.00 95 1011.5
20260509045843 72 187 0.0 0.0 0.00 0.00 0.00 94 1011.5
20260509045340 72 76 0.0 1.0 0.00 0.00 0.00 94 1011.2
20260509044837 72 269 0.0 0.0 0.00 0.00 0.00 94 1011.0
20260509044335 72 235 0.0 1.0 0.00 0.00 0.00 94 1011.0
20260509043831 72 157 0.0 0.0 0.00 0.00 0.00 93 1011.0
20260509043327 72 118 0.0 2.0 0.00 0.00 0.00 93 1011.0
20260509042823 72 246 0.0 0.0 0.00 0.00 0.00 93 1010.9
20260509042320 73 129 0.0 0.0 0.00 0.00 0.00 93 1011.0
20260509041816 73 104 0.0 2.0 0.00 0.00 0.00 92 1010.8
20260509041314 73 111 0.0 2.0 0.00 0.00 0.00 92 1010.7
20260509040812 73 113 0.0 0.0 0.00 0.00 0.00 91 1011.0
20260509040309 73 126 0.0 0.0 0.00 0.00 0.00 91 1011.2
20260509035806 74 164 0.0 2.0 0.00 0.00 0.00 91 1011.0
20260509035306 74 131 0.0 2.0 0.00 0.00 0.00 90 1011.0
20260509034759 74 137 0.0 2.0 0.00 0.00 0.00 90 1011.1
20260509034257 74 164 0.0 2.0 0.00 0.00 0.00 90 1010.8
20260509033754 74 159 1.0 3.0 0.00 0.00 0.00 90 1010.9
20260509033251 74 31 0.0 1.0 0.00 0.00 0.00 90 1010.8
20260509032748 74 298 1.0 3.0 0.00 0.00 0.00 90 1010.9
20260509032244 74 307 0.0 2.0 0.00 0.00 0.00 89 1011.0
20260509031742 74 230 0.0 0.0 0.00 0.00 0.00 89 1011.0
20260509031240 75 117 0.0 1.0 0.00 0.00 0.00 89 1011.0
20260509030738 75 310 0.0 1.0 0.00 0.00 0.00 88 1010.8
20260509030235 75 241 1.0 1.0 0.00 0.00 0.00 88 1010.9
20260509025732 75 135 0.0 1.0 0.00 0.00 0.00 88 1010.6
20260509025227 75 131 0.0 2.0 0.00 0.00 0.00 88 1010.7
20260509024722 75 224 0.0 1.0 0.00 0.00 0.00 88 1010.8
20260509024218 75 130 0.0 1.0 0.00 0.00 0.00 88 1010.5
20260509023716 75 128 0.0 2.0 0.00 0.00 0.00 87 1010.3
20260509023213 75 130 0.0 2.0 0.00 0.00 0.00 87 1010.4
20260509022709 75 147 0.0 2.0 0.00 0.00 0.00 87 1010.4
20260509022207 75 136 1.0 2.0 0.00 0.00 0.00 87 1010.3
20260509021704 75 122 2.0 3.0 0.00 0.00 0.00 86 1010.3
20260509021201 75 125 1.0 4.0 0.00 0.00 0.00 86 1010.0
20260509020659 75 133 0.0 3.0 0.00 0.00 0.00 86 1009.8
20260509020156 76 86 3.0 4.0 0.00 0.00 0.00 85 1009.7
20260509015654 76 131 0.0 2.0 0.00 0.00 0.00 85 1009.9
20260509015152 76 126 0.0 2.0 0.00 0.00 0.00 85 1009.6
20260509014648 76 139 1.0 1.0 0.00 0.00 0.00 85 1009.8
20260509014144 75 108 1.0 1.0 0.00 0.00 0.00 85 1009.7
20260509013642 76 304 0.0 0.0 0.00 0.00 0.00 85 1009.7
20260509013138 76 117 0.0 2.0 0.00 0.00 0.00 84 1009.5
20260509012634 76 180 0.0 2.0 0.00 0.00 0.00 84 1009.5
20260509012131 76 173 0.0 2.0 0.00 0.00 0.00 84 1009.6
20260509011630 76 109 0.0 1.0 0.00 0.00 0.00 84 1009.6
20260509011126 76 132 0.0 2.0 0.00 0.00 0.00 84 1009.5
20260509010624 76 138 2.0 4.0 0.00 0.00 0.00 84 1009.5
20260509010120 76 151 2.0 3.0 0.00 0.00 0.00 83 1009.5
20260509005618 76 148 0.0 2.0 0.00 0.00 0.00 83 1009.4
20260509005113 77 159 3.0 3.0 0.00 0.00 0.00 83 1009.3
20260509004610 77 188 0.0 2.0 0.00 0.00 0.00 83 1009.5
20260509004107 77 117 0.0 5.0 0.00 0.00 0.00 82 1009.5
20260509003606 77 102 2.0 2.0 0.00 0.00 0.00 83 1009.4
20260509003102 77 98 0.0 2.0 0.00 0.00 0.00 82 1009.6
20260509002600 77 96 1.0 3.0 0.00 0.00 0.00 82 1009.4
20260509002057 77 132 2.0 5.0 0.00 0.00 0.00 82 1009.3
20260509001554 77 127 3.0 5.0 0.00 0.00 0.00 82 1009.5
20260509001050 77 115 0.0 4.0 0.00 0.00 0.00 82 1009.4
20260509000549 77 110 2.0 3.0 0.00 0.00 0.00 82 1009.3
20260509000044 77 133 2.0 4.0 0.00 0.00 0.00 82 1009.4
20260508235542 77 118 1.0 5.0 0.00 0.00 0.00 81 1009.4
20260508235038 78 282 0.0 1.0 0.00 0.00 0.00 81 1009.3
20260508234536 77 138 3.0 5.0 0.00 0.00 0.00 81 1009.4
20260508234033 77 140 1.0 4.0 0.00 0.00 0.00 82 1009.5
20260508233532 77 129 1.0 4.0 0.00 0.00 0.00 82 1009.2
20260508233029 77 103 3.0 5.0 0.00 0.00 0.00 81 1009.3
20260508232526 77 192 1.0 5.0 0.00 0.00 0.00 81 1009.4
20260508232023 78 134 2.0 3.0 0.00 0.00 0.00 80 1009.3
20260508231520 77 117 1.0 4.0 0.00 0.00 0.00 81 1009.2
20260508231017 77 159 3.0 4.0 0.00 0.00 0.00 81 1009.3
20260508230514 77 112 3.0 6.0 0.00 0.00 0.00 81 1009.7
20260508230011 77 99 0.0 5.0 0.00 0.00 0.00 81 1009.6
20260508225508 77 62 0.0 4.0 0.00 0.00 0.00 80 1009.6
20260508225004 78 133 5.0 6.0 0.00 0.00 0.00 80 1009.8
20260508224503 78 130 0.0 3.0 0.00 0.00 0.00 79 1009.7
20260508223959 78 81 0.0 3.0 0.00 0.00 0.00 79 1009.8
20260508223457 78 124 2.0 5.0 0.00 0.00 0.00 79 1009.7
20260508222954 78 134 0.0 3.0 0.00 0.00 0.00 78 1009.8
20260508222452 79 115 3.0 3.0 0.00 0.00 0.00 77 1009.9
20260508221948 79 263 1.0 6.0 0.00 0.00 0.00 77 1009.7
20260508221444 79 121 3.0 3.0 0.00 0.00 0.00 77 1009.8
20260508220940 78 124 2.0 4.0 0.00 0.00 0.00 78 1009.7
20260508220437 79 114 3.0 6.0 0.00 0.00 0.00 76 1009.8
20260508215933 79 292 0.0 6.0 0.00 0.00 0.00 75 1010.0
20260508215431 79 142 3.0 7.0 0.00 0.00 0.00 75 1009.8
20260508214927 79 98 0.0 6.0 0.00 0.00 0.00 75 1009.8
20260508214425 80 335 1.0 3.0 0.00 0.00 0.00 74 1009.8
20260508213920 79 269 0.0 3.0 0.00 0.00 0.00 75 1009.9
20260508213418 79 290 0.0 2.0 0.00 0.00 0.00 76 1009.9
20260508212914 78 225 5.0 5.0 0.00 0.00 0.00 76 1010.0
20260508212410 78 132 3.0 4.0 0.00 0.00 0.00 77 1010.1
20260508211906 77 55 0.0 4.0 0.00 0.00 0.00 77 1010.3
20260508211402 78 114 0.0 3.0 0.00 0.00 0.00 76 1010.3
20260508210900 78 86 3.0 5.0 0.00 0.00 0.00 75 1010.5
20260508210356 79 220 1.0 5.0 0.00 0.00 0.00 74 1010.6
20260508205852 78 124 1.0 4.0 0.00 0.00 0.00 75 1010.5
20260508205349 78 120 2.0 4.0 0.00 0.00 0.00 75 1010.5
20260508204845 78 106 3.0 5.0 0.00 0.00 0.00 75 1010.5
20260508204343 78 122 1.0 3.0 0.00 0.00 0.00 75 1010.3
20260508203838 78 136 3.0 7.0 0.00 0.00 0.00 75 1010.4
20260508203335 79 107 2.0 4.0 0.00 0.00 0.00 73 1010.7
20260508202830 78 141 2.0 7.0 0.00 0.00 0.00 74 1010.7
20260508202328 78 147 1.0 2.0 0.00 0.00 0.00 74 1010.7
20260508201825 78 146 1.0 3.0 0.00 0.00 0.00 72 1010.8
20260508201322 79 214 2.0 4.0 0.00 0.00 0.00 72 1010.9
20260508200818 78 119 1.0 4.0 0.00 0.00 0.00 73 1010.9
20260508200315 78 163 1.0 5.0 0.00 0.00 0.00 74 1010.8
20260508195811 78 267 2.0 4.0 0.00 0.00 0.00 73 1010.7
20260508195308 77 157 2.0 3.0 0.00 0.00 0.00 73 1011.1
20260508194804 78 97 2.0 3.0 0.00 0.00 0.00 72 1011.3
20260508194301 78 133 1.0 3.0 0.00 0.00 0.00 72 1011.2
20260508193758 77 201 1.0 5.0 0.00 0.00 0.00 74 1010.9
20260508193255 76 56 0.0 5.0 0.00 0.00 0.00 75 1011.0
20260508192751 78 83 5.0 5.0 0.00 0.00 0.00 72 1011.0
20260508192248 77 110 0.0 2.0 0.00 0.00 0.00 73 1011.1
20260508191746 76 6 2.0 3.0 0.00 0.00 0.00 74 1011.2
20260508191243 75 94 4.0 4.0 0.00 0.00 0.00 74 1011.3
20260508190740 76 119 1.0 3.0 0.00 0.00 0.00 73 1011.6
20260508190235 76 239 2.0 2.0 0.00 0.00 0.00 73 1011.6
20260508185732 74 220 0.0 3.0 0.00 0.00 0.00 76 1011.6
20260508185230 73 241 0.0 3.0 0.00 0.00 0.00 77 1011.5
20260508184727 73 66 1.0 2.0 0.00 0.00 0.00 76 1011.9
20260508184224 73 221 0.0 3.0 0.00 0.00 0.00 76 1011.6
20260508183721 73 116 2.0 3.0 0.00 0.00 0.00 77 1011.8
20260508183217 72 119 0.0 1.0 0.00 0.00 0.00 78 1012.0
20260508182713 72 89 0.0 4.0 0.00 0.00 0.00 77 1011.9
20260508182210 72 89 0.0 2.0 0.00 0.00 0.00 77 1012.0
20260508181706 72 99 2.0 3.0 0.00 0.00 0.00 77 1012.2
20260508181203 72 103 3.0 3.0 0.00 0.00 0.00 77 1012.1
20260508180659 72 92 4.0 5.0 0.00 0.00 0.00 76 1012.2
20260508180157 72 110 0.0 3.0 0.00 0.00 0.00 77 1012.4
20260508175653 72 100 2.0 3.0 0.00 0.00 0.00 78 1012.3
20260508175149 72 351 1.0 2.0 0.00 0.00 0.00 77 1012.5
20260508174648 71 53 0.0 3.0 0.00 0.00 0.00 77 1012.3
20260508174144 72 72 1.0 2.0 0.00 0.00 0.00 77 1012.3
20260508173641 71 315 0.0 3.0 0.00 0.00 0.00 76 1012.5
20260508173137 70 116 0.0 3.0 0.00 0.00 0.00 78 1012.5
20260508172629 71 77 4.0 4.0 0.00 0.00 0.00 78 1012.7
20260508172125 71 110 1.0 3.0 0.00 0.00 0.00 78 1012.7
20260508171622 70 127 0.0 4.0 0.00 0.00 0.00 78 1012.8
20260508171118 69 101 1.0 2.0 0.00 0.00 0.00 79 1012.6
20260508170616 69 75 2.0 3.0 0.00 0.00 0.00 79 1012.9
20260508170113 69 100 3.0 3.0 0.00 0.00 0.00 79 1012.8
20260508165610 69 110 4.0 4.0 0.00 0.00 0.00 79 1012.8
20260508165107 69 57 3.0 5.0 0.00 0.00 0.00 79 1012.7
20260508164603 69 3 1.0 2.0 0.00 0.00 0.00 79 1012.8
20260508164100 69 57 2.0 5.0 0.00 0.00 0.00 78 1012.7
20260508163557 69 95 1.0 2.0 0.00 0.00 0.00 78 1012.9
20260508163054 69 352 2.0 2.0 0.00 0.00 0.00 78 1012.9
20260508162551 68 47 3.0 4.0 0.00 0.00 0.00 79 1013.0
20260508162048 68 68 3.0 3.0 0.00 0.00 0.00 80 1012.9
20260508161545 68 89 3.0 3.0 0.00 0.00 0.00 79 1013.1
20260508161042 68 98 2.0 4.0 0.00 0.00 0.00 79 1013.2
20260508160541 68 285 0.0 3.0 0.00 0.00 0.00 79 1013.2
20260508160037 68 17 2.0 3.0 0.00 0.00 0.00 79 1013.2
20260508155534 67 316 2.0 3.0 0.00 0.00 0.00 80 1013.5
20260508155031 67 103 2.0 4.0 0.00 0.00 0.00 79 1013.4
20260508154528 68 41 3.0 5.0 0.00 0.00 0.00 79 1013.5
20260508154025 67 6 4.0 7.0 0.00 0.00 0.00 78 1013.2
20260508153522 67 60 7.0 8.0 0.00 0.00 0.00 78 1013.4
20260508153019 67 51 4.0 5.0 0.00 0.00 0.00 79 1013.5